Hourly Data Report for October 11, 2015

All times are specified in Local Standard Time (LST). Add 1 hour to adjust for Daylight Saving Time where and when it is observed.

EUREKA CLIMATE
NUNAVUT

79°59'21.000" N
85°56'02.000" W
10.00 m
2401199
71613
NEK

Download Data

Hourly Data (October 2015)
Hourly Data Report for October 11, 2015
Temp Definition
°C
Dew Point Temp Definition
°C
Rel Hum Definition
%
Wind Dir Definition
10's deg

Wind Spd Definition
km/h
Visibility Definition
km
Stn Press Definition
kPa
Hmdx Definition


Wind Chill Definition


Weather Definition


TIME
00:00 -21.1 -22.8 86 12 1   101.54   -22 LegendNANA
01:00 -21.0 -22.7 86 11 1   101.53   -22 LegendNANA
02:00 -21.1 -22.9 86 12 1   101.53   -22 LegendNANA
03:00 -21.1 -22.8 86 11 1   101.51   -22 LegendNANA
04:00 -20.7 -22.4 86 11 1   101.52   -22 LegendNANA
05:00 -18.7 -19.9 90 8 1   101.51   -20 LegendNANA
06:00 -19.5 -21.0 87 1 1   101.49   -20 LegendNANA
07:00 -19.6 -21.2 87 11 1   101.48   -20 LegendNANA
08:00 -19.6 -21.2 87 11 1   101.49   -20 LegendNANA
09:00 -18.5 -20.0 88 11 1   101.48   -19 LegendNANA
10:00 -18.1 -19.5 89 10 1   101.46   -19 LegendNANA
11:00 -17.7 -19.1 89 10 1   101.45   -18 LegendNANA
12:00 -17.9 -19.3 89 9 1   101.46   -19 LegendNANA
13:00 -18.5 -19.9 88 9 1   101.43   -19 LegendNANA
14:00 -18.8 -20.2 88 29 1   101.40   -20 LegendNANA
15:00 -18.5 -19.9 89 7 1   101.38   -19 LegendNANA
16:00 -19.0 -20.6 88 9 1   101.36   -20 LegendNANA
17:00 -20.7 -22.4 86 6 1   101.33   -22 LegendNANA
18:00 -20.0 -21.5 87 9 1   101.30   -21 LegendNANA
19:00 -20.1 -21.7 87 9 1   101.28   -21 LegendNANA
20:00 -21.9 -23.8 84 3 1   101.23   -23 LegendNANA
21:00 -21.0 -22.7 86 10 1   101.19   -22 LegendNANA
22:00 -20.9 -22.6 86 11 1   101.14   -22 LegendNANA
23:00 -20.9 -22.6 86 10 1   101.10   -22 LegendNANA

Notes on Data Quality.

Legend

  • E = Estimated
  • M = Missing
  • NA = Not Available
  • ‡ = Partner data that is not subject to review by the National Climate Archives
Date modified: